User: anonymous   Login
Location: Unspecified
(0.0000°N, 0.0000°E)
Time: 08:47:23
(UTC+02:00)
Language:

AO-40 - Orbit

View from above orbital plane
View from above orbital plane
View from above satellite
View from above satellite

Ground track
Ground track

The orbit data is extracted from the following two-line orbital elements,

1 26609U 00072B   15183.89837346 -.00000120  00000-0  00000+0 0  9991
2 26609 009.3354 347.5991 7952368 242.9419 019.8091 01.25585718 67359
Epoch (UTC): 02 July 2015 21:33:39
Eccentricity: 0.7952368
inclination: 9.3354°
perigee height: 1052 km
apogee height: 58768 km
right ascension of ascending node: 347.5991°
argument of perigee: 242.9419°
revolutions per day: 1.25585718
mean anomaly at epoch: 19.8091°
orbit number at epoch: 6735

The dashed part of the orbit path shows where the satellite is in the earth's shadow,  

DLR